Regional Weather Roundup
Issued by NWS

Home | Current Version | Previous Version | Graphics & Text | Print | Product List | Glossary On
Versions: 1 2 3 4 5 6 7 8 9 10 11 12 13 14 15 16 17 18 19 20 21 22 23 24 25 26 27
000
ASUS45 KBOU 031207
RWRCO

WEATHER ROUNDUP FOR COLORADO
NATIONAL WEATHER SERVICE DENVER/BOULDER CO
500 AM MST SAT DEC 03 2016

NOTE: "FAIR" INDICATES FEW OR NO CLOUDS BELOW 12000 FEET WITH NO
SIGNIFICANT WEATHER AND/OR OBSTRUCTIONS TO VISIBILITY.

COZ001>005-013-030-031-031300-
...NORTHWEST COLORADO...

CITY           SKY/WX    TMP DP  RH WIND       PRES   REMARKS
CRAIG          FAIR      10   5  80 CALM      30.19S
HAYDEN         FAIR      12   7  79 S3        30.16S
MEEKER         FAIR       2  -1  88 NE5       30.20R WCI  -8
MOUNT WERNER   NOT AVBL
STEAMBOAT SPGS CLOUDY    14  11  89 E3        30.16R
WALDEN           N/A     10   5  79 S9        30.06R WCI  -2
$$

COZ006>008-011-031300-
...WEST CENTRAL VALLEYS...

CITY           SKY/WX    TMP DP  RH WIND       PRES   REMARKS
GRAND JUNCTION FAIR      21  17  84 NW5       30.20S WCI  15
MONTROSE       CLOUDY    23  19  85 SE3       30.21R
EAGLE          FLURRIES  19  17  92 W3        30.17S
RIFLE          CLOUDY    20  13  74 W6        30.21S WCI  12
DELTA          CLOUDY    30  24  79 CALM      30.19F
NUCLA          FAIR      19  16  86 E9        30.20R WCI   9
$$

COZ017>023-064>068-031300-
...SOUTHWEST COLORADO...

CITY           SKY/WX    TMP DP  RH WIND       PRES   REMARKS
DURANGO        FAIR      20  15  81 CALM      30.07F
CORTEZ         FAIR      18  16  92 E6        30.11R WCI  10
PAGOSA SPRINGS FAIR      19  18  97 CALM      30.07F
TELLURIDE      FAIR      15  12  90 SE7       30.08S WCI   5
WOLF CREEK PAS SNOW      12  10  92 SW8       30.07F VSB 1/4 WCI   1
$$

COZ009-010-012-014-032>034-037-058>063-031300-
...CENTRAL COLORADO...

CITY           SKY/WX    TMP DP  RH WIND       PRES   REMARKS
ASPEN          CLOUDY    17  15  92 CALM      30.10R
BUENA VISTA    MOCLDY     7   2  82 W5        30.05F WCI  -2
COPPER MTN     NOT AVBL
BERTHOUD PASS  CLOUDY    -2 -13  60 NW33      29.88S WCI -30
COTTONWOOD PAS FAIR      18  14  86 W8        29.98F WCI   7
GUNNISON       FLURRIES  17  14  88 CALM      30.11F
KREMMLING      FLURRIES  14  10  85 N3        30.14S
LEADVILLE      FAIR       5   1  83 N12G17    29.99S WCI -11
MONARCH PASS   CLOUDY     9   5  85 W35G45    30.05F WCI -15
SALIDA         FAIR      11   8  89 W3        30.14F
SUNLIGHT       CLOUDY   N/A N/A N/A SW5       30.08R
WILKERSON PASS FAIR      10   5  79 SW16G29   29.94F WCI  -7
$$

COZ069>075-031300-
...SAN LUIS VALLEY/SANGRE DE CRISTO MOUNTAINS...

CITY           SKY/WX    TMP DP  RH WIND       PRES   REMARKS
ALAMOSA        CLOUDY    20  19  96 W3        30.09S FOG
LA VETA PASS   CLOUDY    16  12  86 NE20G29   29.99F FOG     WCI  -1
SAGUACHE       FAIR      19  12  73 NW10      30.09S WCI   8
$$

COZ035-036-038>040-031300-
...NORTHERN COLORADO FRONT RANGE...

CITY           SKY/WX    TMP DP  RH WIND       PRES   REMARKS
DENVER INTL AP FAIR      18  13  80 SW7       30.01F WCI   9
DMNS CITY PARK   N/A     20  13  73 W3        30.03S
AURORA         PTCLDY    17  14  86 S3        30.01F
FRONT RANGE AP FAIR      21  18  86 SW6       30.01F WCI  14
ERIE MUNI ARPT FAIR      13  10  87 N3        30.05R
BOULDER MUN AP FAIR      18  14  86 NW6       30.03S WCI   9
CENTENNIAL     FAIR      16  11  80 S7        29.99F WCI   6
BROOMFIELD     FAIR      23  19  86 W3        30.02S
FORT COLLINS   FAIR      18  12  79 CALM      30.05S
LONGMONT       FAIR      19  14  81 W5        30.07R WCI  12
$$

COZ041-046-047-076>085-087-088-031300-
...PIKES PEAK/PALMER DIVIDE AND SOUTHERN FOOTHILLS...

CITY           SKY/WX    TMP DP  RH WIND       PRES   REMARKS
COLO. SPRINGS  FAIR      20  15  81 E6        30.05F WCI  12
A. F. ACADEMY  CLOUDY    15  12  88 CALM      30.02F
SCHRIEVER AFB  NOT AVBL
ELLICOTT       FAIR     N/A N/A N/A S14       30.03F
FALCON         CLOUDY    19  17  94 SW5       30.04F WCI  12
FORT CARSON    FAIR      20  16  84 S9        30.03F WCI  10
LIMON          FAIR      15  13  91 S7        30.06F WCI   5
MONUMENT HILL  FAIR      18  14  86 S13       30.00F WCI   4
TRINIDAD       FAIR      15  11  83 SW6       30.08F WCI   6
$$

COZ042>045-048>051-090-091-031300-
...NORTHEAST COLORADO...

CITY           SKY/WX    TMP DP  RH WIND       PRES   REMARKS
GREELEY ARPT   FAIR      10   7  87 CALM      30.06F
AKRON          FAIR      24  17  74 S10       30.06F WCI  14
BURLINGTON     FAIR      21  15  78 S10       30.10F WCI  10
WRAY           FAIR      27  23  86 SW3       30.11
STERLING       FAIR      19  18  93 CALM      30.08F
HOLYOKE        FAIR      25  19  80 SW8       30.11F WCI  16
FORT MORGAN    FAIR      18  14  86 S3        30.05F
$$

COZ086-089-092>099-031300-
...SOUTHEAST COLORADO...

CITY           SKY/WX    TMP DP  RH WIND       PRES   REMARKS
PUEBLO         FAIR      22  18  85 N3        30.09F
LA JUNTA       FAIR      21  16  81 W3        30.11F
LAMAR          MIX PCPN  28  20  71 CALM      30.13F
SPRINGFIELD      N/A     28  26  92 W3        30.12S
$$




USA.gov is the U.S. government's official web portal to all federal, state and local government web resources and services.